(209035) = 2003 NJ1

Discovered at Reedy Creek on 2003-07-02 by J. Broughton.

Orbit

Orbit type: Mars-crosser

Note: WebGL enabled browser required.

epoch2024-03-31.0
epoch JD2460400.5
perihelion date2022-07-28.41372
perihelion JD2459788.91372
argument of perihelion (°)279.96799
ascending node (°)67.94323
inclination (°)9.17627
eccentricity0.3365223
perihelion distance (AU)1.5998668
Tisserand w.r.t. Jupiter3.4
ΔV w.r.t. Earth (km/sec)8.3
semimajor axis (AU)2.4113347
mean anomaly (°)160.98126
mean daily motion (°/day)0.26321920
aphelion distance (AU)3.223
period (years)3.74
P-vector [x]0.96614233
P-vector [y]-0.12532605
P-vector [z]-0.22552689
Q-vector [x]0.21148024
Q-vector [y]0.88539261
Q-vector [z]0.41395173
absolute magnitude16.41
phase slope0.15
uncertainty0
referenceMPEC 2024-E179
observations used908
oppositions15
arc length (days)9040
first opposition used1999
last opposition used2024
residual rms (arc-secs)0.58
perturbers coarse indicatorM-v
perturbers precise indicator003Ek
first observation date used1999-06-13.0
last observation date used2024-03-13.0
computer nameMPCLINUX
JD of orbit computation2456877.896330
perihelion JD uncertainty (days)2.8896E-05
argument of perihelion uncertainty (°)2.1788E-05
ascending node uncertainty (°)2.0830E-05
inclination uncertainty (°)4.4373E-06
eccentricity uncertainty 2.9324E-08
perihelion distance uncertainty (AU)7.0325E-08
Minimum Orbit Intersection Distances (in AU)
for orbit epoch: 2460400.5, reference: E2024-G38
Mercury1.21577
Venus0.87904
Earth0.62629
Mars0.28524
Jupiter2.27186
Saturn6.16427
Uranus15.2579
Neptune27.2973

Observations

925 total observations over interval: 1999 06 13.18010 – 2024 03 13.254993
These data are available for download (format description).

Date (UT) J2000 RA J2000 Dec Magn Location Ref
1999 06 13.18010 15 20 37.54 -17 26 41.6 19.4 V 691 – Steward Observatory, Kitt Peak-Spacewatch MPS 218565
1999 06 13.20174 15 20 36.61 -17 26 39.8 17.5 V 691 – Steward Observatory, Kitt Peak-Spacewatch MPS 218565
1999 06 13.22331 15 20 35.02 -17 26 44.6 20.0 V 691 – Steward Observatory, Kitt Peak-Spacewatch MPS 218565
2002 03 23.386848 12 18 12.908 +11 27 06.14   645 – Apache Point-Sloan Digital Sky Survey MPS 483309
2002 03 23.387677 12 18 12.866 +11 27 06.28   645 – Apache Point-Sloan Digital Sky Survey MPS 483309
2002 03 23.390165 12 18 12.723 +11 27 07.14   645 – Apache Point-Sloan Digital Sky Survey MPS 483309
2002 03 23.422312 12 18 10.876 +11 27 17.08   645 – Apache Point-Sloan Digital Sky Survey MPS 483309
2002 03 23.423142 12 18 10.834 +11 27 17.34   645 – Apache Point-Sloan Digital Sky Survey MPS 483309
2002 03 23.425629 12 18 10.686 +11 27 18.19   645 – Apache Point-Sloan Digital Sky Survey MPS 483309
2003 05 31.38465 19 27 45.31 -28 13 10.1 18.6   704 – Lincoln Laboratory ETS, New Mexico MPS 82912
2003 05 31.40637 19 27 45.53 -28 13 22.2 19.0   704 – Lincoln Laboratory ETS, New Mexico MPS 82912
2003 05 31.41719 19 27 45.54 -28 13 27.5 18.9   704 – Lincoln Laboratory ETS, New Mexico MPS 82912
2003 05 31.42794 19 27 45.55 -28 13 33.6 18.7   704 – Lincoln Laboratory ETS, New Mexico MPS 82912
2003 07 02.40138 19 14 02.45 -33 48 01.1 17.6 V 428 – Reedy Creek MPS 81923
2003 07 02.40520 19 14 02.22 -33 48 03.5 17.5 V 428 – Reedy Creek MPS 81923
2003 07 02.52946 19 13 54.69 -33 49 27.8 17.7 V 428 – Reedy Creek MPS 81923
2003 07 03.47264 19 13 00.05 -33 59 45.5 18.0 V 428 – Reedy Creek MPS 81923
2003 07 03.48409 19 12 59.38 -33 59 52.7 17.7 V 428 – Reedy Creek MPS 81923
2003 07 17.42360 18 58 12.77 -36 15 35.4 18.0 V 428 – Reedy Creek MPS 82285
2003 07 17.44168 18 58 11.57 -36 15 44.3 18.0 V 428 – Reedy Creek MPS 82285
2003 08 04.42852 18 42 26.61 -37 58 28.4 17.9 V 428 – Reedy Creek MPS 82912
2003 08 04.45407 18 42 25.62 -37 58 33.2 18.0 V 428 – Reedy Creek MPS 82912
2003 08 20.36532 18 39 48.68 -38 17 22.0 18.5 V 428 – Reedy Creek MPS 83415
2003 08 20.40469 18 39 49.22 -38 17 21.3 18.1 V 428 – Reedy Creek MPS 83415
2003 09 18.40354 19 08 26.58 -36 45 47.8 19.2 V 428 – Reedy Creek MPS 85233
2007 08 22.39192 02 24 00.11 -02 20 37.5 19.9 C 704 – Lincoln Laboratory ETS, New Mexico MPS 291438
2007 08 22.41757 02 24 02.00 -02 20 33.7 18.7 C 704 – Lincoln Laboratory ETS, New Mexico MPS 291438
2007 08 22.43034 02 24 02.79 -02 20 30.4 19.6 C 704 – Lincoln Laboratory ETS, New Mexico MPS 291438
2007 10 08.41105 02 35 15.09 -00 51 44.8 17.5 r 699 – Lowell Observatory-LONEOS MPS 218565
2007 10 08.42844 02 35 14.23 -00 51 41.8   699 – Lowell Observatory-LONEOS MPS 218565
2007 10 08.44584 02 35 13.34 -00 51 39.5   699 – Lowell Observatory-LONEOS MPS 218565
2007 10 08.46322 02 35 12.47 -00 51 36.6   699 – Lowell Observatory-LONEOS MPS 218565
2007 10 10.31060 02 33 44.10 -00 46 35.5 17.5 V 703 – Catalina Sky Survey MPS 218565
2007 10 10.31712 02 33 43.74 -00 46 34.4 17.5 V 703 – Catalina Sky Survey MPS 218565
2007 10 10.32363 02 33 43.41 -00 46 32.9 17.6 V 703 – Catalina Sky Survey MPS 218565
2007 10 10.33016 02 33 43.02 -00 46 31.9 17.6 V 703 – Catalina Sky Survey MPS 218565
2007 10 13.30381 02 31 06.90 -00 37 24.8 17.0   704 – Lincoln Laboratory ETS, New Mexico MPS 220375
2007 10 13.31473 02 31 06.26 -00 37 22.8 17.5   704 – Lincoln Laboratory ETS, New Mexico MPS 220375
2007 10 13.32562 02 31 05.59 -00 37 20.5 17.5   704 – Lincoln Laboratory ETS, New Mexico MPS 220375
2007 10 13.34744 02 31 04.30 -00 37 16.5 17.3   704 – Lincoln Laboratory ETS, New Mexico MPS 220375
2007 10 18.31463 02 26 15.55 -00 18 44.4 17.4   704 – Lincoln Laboratory ETS, New Mexico MPS 220375
2007 10 18.32593 02 26 14.82 -00 18 41.6 17.7   704 – Lincoln Laboratory ETS, New Mexico MPS 220375
2007 10 18.33724 02 26 14.07 -00 18 39.0 17.8   704 – Lincoln Laboratory ETS, New Mexico MPS 220375
2007 10 18.34853 02 26 13.36 -00 18 35.6 17.4   704 – Lincoln Laboratory ETS, New Mexico MPS 220375
2007 10 18.35982 02 26 12.62 -00 18 33.0 17.8   704 – Lincoln Laboratory ETS, New Mexico MPS 220375
2007 10 19.26530 02 25 17.63 -00 14 42.6 17.4 r 699 – Lowell Observatory-LONEOS MPS 222459
2007 10 19.29089 02 25 15.95 -00 14 35.5 17.4 r 699 – Lowell Observatory-LONEOS MPS 222459
2007 10 19.30608 02 25 14.95 -00 14 30.5 17.4 V 703 – Catalina Sky Survey MPS 222459
2007 10 19.31530 02 25 14.34 -00 14 27.9 17.4 V 703 – Catalina Sky Survey MPS 222459
2007 10 19.31645 02 25 14.25 -00 14 28.8 17.4 r 699 – Lowell Observatory-LONEOS MPS 222459
2007 10 19.32453 02 25 13.72 -00 14 25.5 17.5 V 703 – Catalina Sky Survey MPS 222459
2007 10 19.33377 02 25 13.11 -00 14 22.9 17.6 V 703 – Catalina Sky Survey MPS 222459
2007 10 19.34202 02 25 12.59 -00 14 22.3 17.4 r 699 – Lowell Observatory-LONEOS MPS 222459
2007 10 31.26469 02 12 42.48 +00 51 01.0 17.6 V 703 – Catalina Sky Survey MPS 223382
2007 10 31.27322 02 12 41.94 +00 51 04.1 17.6 V 703 – Catalina Sky Survey MPS 223382
2007 10 31.27968 02 12 41.50 +00 51 06.9 17.6 V 703 – Catalina Sky Survey MPS 223382
2007 10 31.28610 02 12 41.07 +00 51 09.4 17.5 V 703 – Catalina Sky Survey MPS 223382
2007 10 31.93352 02 12 01.56 +00 55 26.1   203 – GiaGa Observatory MPS 223382
2007 10 31.96203 02 11 59.74 +00 55 37.2   203 – GiaGa Observatory MPS 223382
2007 11 01.89873 02 11 03.35 +01 01 59.3   203 – GiaGa Observatory MPS 224743
2007 11 01.94571 02 11 00.41 +01 02 18.9   203 – GiaGa Observatory MPS 224743
2007 11 07.24665 02 05 58.12 +01 41 20.6 17.7 V 703 – Catalina Sky Survey MPS 224743
2007 11 07.25626 02 05 57.58 +01 41 25.4 17.7 V 703 – Catalina Sky Survey MPS 224743
2007 11 07.26590 02 05 57.01 +01 41 29.9 17.7 V 703 – Catalina Sky Survey MPS 224743
2007 11 07.27552 02 05 56.47 +01 41 34.1 17.6 V 703 – Catalina Sky Survey MPS 224743
2007 11 11.19681 02 02 38.76 +02 13 24.9 17.2   704 – Lincoln Laboratory ETS, New Mexico MPS 226782
2007 11 11.20947 02 02 38.10 +02 13 31.5 17.6   704 – Lincoln Laboratory ETS, New Mexico MPS 226782
2007 11 11.22156 02 02 37.49 +02 13 37.4 17.5   704 – Lincoln Laboratory ETS, New Mexico MPS 226782
2007 11 11.23365 02 02 36.87 +02 13 43.7 17.5   704 – Lincoln Laboratory ETS, New Mexico MPS 226782
2007 11 11.24574 02 02 36.25 +02 13 49.8 17.6   704 – Lincoln Laboratory ETS, New Mexico MPS 226782
2007 11 14.16033 02 00 27.07 +02 39 00.8 17.9 r 699 – Lowell Observatory-LONEOS MPS 226782
2007 11 14.18229 02 00 26.13 +02 39 12.3 17.6 r 699 – Lowell Observatory-LONEOS MPS 226782
2007 11 14.20421 02 00 25.16 +02 39 23.6 17.7 r 699 – Lowell Observatory-LONEOS MPS 226782
2007 11 14.22614 02 00 24.18 +02 39 35.4 17.7 r 699 – Lowell Observatory-LONEOS MPS 226782
2007 11 18.21493 01 57 54.72 +03 15 57.6 17.9 V 703 – Catalina Sky Survey MPS 228235
2007 11 18.22323 01 57 54.39 +03 16 02.3 18.0 V 703 – Catalina Sky Survey MPS 228235
2007 11 18.23159 01 57 54.10 +03 16 07.5 17.8 V 703 – Catalina Sky Survey MPS 228235
2007 11 18.23991 01 57 53.82 +03 16 11.9 17.9 V 703 – Catalina Sky Survey MPS 228235
2007 11 29.26182 01 53 59.85 +05 05 23.9 18.2   704 – Lincoln Laboratory ETS, New Mexico MPS 228962
2007 11 29.27440 01 53 59.69 +05 05 31.5 18.1   704 – Lincoln Laboratory ETS, New Mexico MPS 228962
2007 11 29.28698 01 53 59.56 +05 05 39.3 18.7   704 – Lincoln Laboratory ETS, New Mexico MPS 228962
2007 11 29.29970 01 53 59.43 +05 05 47.6 18.9   704 – Lincoln Laboratory ETS, New Mexico MPS 228962
2007 11 29.31226 01 53 59.26 +05 05 54.6 18.8   704 – Lincoln Laboratory ETS, New Mexico MPS 228962
2007 12 04.18671 01 53 42.00 +05 57 08.7 18.2   704 – Lincoln Laboratory ETS, New Mexico MPS 229751
2007 12 04.19947 01 53 41.96 +05 57 17.0 18.6   704 – Lincoln Laboratory ETS, New Mexico MPS 229751
2007 12 04.21212 01 53 41.97 +05 57 24.7 18.3   704 – Lincoln Laboratory ETS, New Mexico MPS 229751
2007 12 04.22493 01 53 41.97 +05 57 33.0 18.1   704 – Lincoln Laboratory ETS, New Mexico MPS 229751
2007 12 04.23761 01 53 41.90 +05 57 41.9 18.4   704 – Lincoln Laboratory ETS, New Mexico MPS 229751
2007 12 15.15538 01 56 06.54 +07 56 24.0 18.4 V 703 – Catalina Sky Survey MPS 231755
2007 12 15.16128 01 56 06.61 +07 56 27.4 18.4 V 703 – Catalina Sky Survey MPS 231755
